When you browse on this site, cookies collect data to enhance your experience and personalize the content and advertising you see.
Visit our Privacy Policy to learn more. By continuing to use the site, you agree to this use of cookies and data.
  • In United Kingdom
  • List of Countries
  • For 7 days
  • Water Temperature
  • Satellite Maps
  • Weather Map
  • Weather Widgets
  • user-avatar
    Login

    Hourly Weather Sassandra

    Today, 22 February, Friday

    Time Temperature Precipitation Wind Pressure Humidity
    00:00 +29°C° 0 mm 4 mps 759 mmHg 86%
    01:00 +29°C° 0 mm 4 mps 758 mmHg 86%
    02:00 +29°C° 0 mm 4 mps 758 mmHg 87%
    03:00 +29°C° 0 mm 4 mps 758 mmHg 87%
    04:00 +29°C° 0.1 mm 3 mps 758 mmHg 87%
    05:00 +29°C° 0.1 mm 3 mps 758 mmHg 88%
    06:00 +29°C° 0.1 mm 3 mps 758 mmHg 88%
    07:00 +30°C° 0.2 mm 3 mps 758 mmHg 84%
    08:00 +31°C° 0.2 mm 3 mps 758 mmHg 79%
    09:00 +31°C° 0.2 mm 3 mps 759 mmHg 74%
    10:00 +33°C° 0.7 mm 4 mps 758 mmHg 73%
    11:00 +33°C° 0.7 mm 4 mps 758 mmHg 71%
    12:00 +33°C° 0.7 mm 4 mps 758 mmHg 69%
    13:00 +33°C° 0.6 mm 4 mps 757 mmHg 70%
    14:00 +33°C° 0.6 mm 4 mps 757 mmHg 70%
    15:00 +33°C° 0.6 mm 5 mps 756 mmHg 71%
    16:00 +32°C° 0.2 mm 4 mps 756 mmHg 75%
    17:00 +30°C° 0.2 mm 4 mps 756 mmHg 78%
    18:00 +29°C° 0.2 mm 4 mps 757 mmHg 81%
    19:00 +29°C° 0.1 mm 3 mps 757 mmHg 82%
    20:00 +29°C° 0.1 mm 3 mps 758 mmHg 83%
    21:00 +29°C° 0.1 mm 3 mps 758 mmHg 84%
    22:00 +29°C° 0 mm 3 mps 758 mmHg 84%
    23:00 +29°C° 0 mm 3 mps 758 mmHg 84%

    Tomorrow, 23 February, Saturday

    Time Temperature Precipitation Wind Pressure Humidity
    00:00 +29°C° 0 mm 3 mps 758 mmHg 84%
    01:00 +29°C° 0 mm 3 mps 758 mmHg 84%
    02:00 +28°C° 0 mm 3 mps 757 mmHg 84%
    03:00 +28°C° 0 mm 3 mps 757 mmHg 84%
    04:00 +28°C° 0 mm 3 mps 757 mmHg 85%
    05:00 +28°C° 0 mm 3 mps 757 mmHg 85%
    06:00 +28°C° 0 mm 3 mps 757 mmHg 85%
    07:00 +29°C° 0 mm 3 mps 757 mmHg 80%
    08:00 +32°C° 0 mm 4 mps 758 mmHg 74%
    09:00 +33°C° 0 mm 4 mps 758 mmHg 68%
    10:00 +34°C° 0 mm 4 mps 758 mmHg 65%
    11:00 +34°C° 0 mm 4 mps 758 mmHg 62%
    12:00 +35°C° 0 mm 4 mps 757 mmHg 59%
    13:00 +35°C° 0 mm 4 mps 756 mmHg 59%
    14:00 +35°C° 0 mm 4 mps 756 mmHg 60%
    15:00 +34°C° 0 mm 4 mps 755 mmHg 60%
    16:00 +33°C° 0 mm 4 mps 755 mmHg 65%
    17:00 +31°C° 0 mm 3 mps 755 mmHg 70%
    18:00 +30°C° 0 mm 3 mps 756 mmHg 75%
    19:00 +30°C° 0 mm 2 mps 756 mmHg 77%
    20:00 +30°C° 0 mm 2 mps 757 mmHg 79%
    21:00 +29°C° 0 mm 2 mps 757 mmHg 82%
    22:00 +29°C° 0 mm 2 mps 757 mmHg 83%
    23:00 +29°C° 0 mm 2 mps 757 mmHg 84%

    Day after tomorrow, 24 February, Sunday

    Time Temperature Precipitation Wind Pressure Humidity
    00:00 +29°C° 0 mm 2 mps 757 mmHg 85%
    01:00 +29°C° 0.3 mm 1 mps 756 mmHg 86%
    02:00 +28°C° 0.3 mm 1 mps 756 mmHg 87%
    03:00 +28°C° 0.3 mm 1 mps 755 mmHg 88%
    04:00 +28°C° 0 mm 1 mps 755 mmHg 88%
    05:00 +28°C° 0 mm 1 mps 755 mmHg 88%
    06:00 +28°C° 0 mm 2 mps 755 mmHg 89%
    07:00 +29°C° 0 mm 2 mps 756 mmHg 81%
    08:00 +31°C° 0 mm 2 mps 757 mmHg 73%
    09:00 +32°C° 0 mm 2 mps 757 mmHg 66%
    10:00 +34°C° 0 mm 2 mps 757 mmHg 61%
    11:00 +35°C° 0 mm 3 mps 756 mmHg 56%
    12:00 +36°C° 0 mm 3 mps 756 mmHg 52%
    13:00 +36°C° 0 mm 3 mps 755 mmHg 53%
    14:00 +36°C° 0 mm 4 mps 754 mmHg 54%
    15:00 +36°C° 0 mm 4 mps 753 mmHg 54%
    16:00 +34°C° 0.1 mm 4 mps 754 mmHg 60%
    17:00 +33°C° 0.1 mm 4 mps 754 mmHg 67%
    18:00 +32°C° 0.1 mm 4 mps 755 mmHg 73%
    19:00 +30°C° 0 mm 3 mps 755 mmHg 75%
    20:00 +30°C° 0 mm 3 mps 756 mmHg 78%
    21:00 +30°C° 0 mm 3 mps 757 mmHg 80%
    22:00 +30°C° 0 mm 3 mps 757 mmHg 81%
    23:00 +29°C° 0 mm 3 mps 756 mmHg 83%

    25 February, Monday

    Time Temperature Precipitation Wind Pressure Humidity
    00:00 +29°C° 0 mm 3 mps 756 mmHg 84%
    01:00 +29°C° 0 mm 2 mps 755 mmHg 85%
    02:00 +29°C° 0 mm 2 mps 755 mmHg 86%
    03:00 +29°C° 0 mm 2 mps 754 mmHg 87%
    04:00 +28°C° 0 mm 2 mps 754 mmHg 88%
    05:00 +28°C° 0 mm 2 mps 755 mmHg 89%
    06:00 +28°C° 0 mm 2 mps 755 mmHg 89%
    07:00 +30°C° 0 mm 2 mps 756 mmHg 82%
    08:00 +31°C° 0 mm 3 mps 756 mmHg 76%
    09:00 +33°C° 0 mm 3 mps 757 mmHg 69%
    10:00 +34°C° 0.3 mm 3 mps 756 mmHg 66%
    11:00 +35°C° 0.3 mm 4 mps 756 mmHg 64%
    12:00 +35°C° 0.3 mm 4 mps 755 mmHg 61%
    13:00 +35°C° 1 mm 4 mps 755 mmHg 63%
    14:00 +34°C° 1 mm 4 mps 754 mmHg 65%
    15:00 +34°C° 1 mm 4 mps 754 mmHg 67%
    16:00 +33°C° 0.4 mm 4 mps 754 mmHg 71%
    17:00 +31°C° 0.4 mm 3 mps 755 mmHg 75%
    18:00 +30°C° 0.4 mm 3 mps 755 mmHg 79%
    19:00 +30°C° 0 mm 3 mps 756 mmHg 81%
    20:00 +30°C° 0 mm 3 mps 756 mmHg 82%
    21:00 +29°C° 0 mm 3 mps 757 mmHg 84%
    22:00 +29°C° 0.2 mm 3 mps 757 mmHg 85%
    23:00 +29°C° 0.2 mm 2 mps 757 mmHg 86%

    26 February, Tuesday

    Time Temperature Precipitation Wind Pressure Humidity
    00:00 +29°C° 0.2 mm 2 mps 757 mmHg 86%
    01:00 +29°C° 0.6 mm 2 mps 756 mmHg 88%
    02:00 +28°C° 0.6 mm 2 mps 755 mmHg 89%
    03:00 +28°C° 0.6 mm 2 mps 755 mmHg 90%
    04:00 +28°C° 1.2 mm 2 mps 755 mmHg 90%
    05:00 +28°C° 1.2 mm 2 mps 756 mmHg 90%
    06:00 +28°C° 1.2 mm 2 mps 756 mmHg 89%
    07:00 +29°C° 0.8 mm 2 mps 757 mmHg 85%
    08:00 +30°C° 0.8 mm 2 mps 757 mmHg 80%
    09:00 +31°C° 0.8 mm 2 mps 758 mmHg 76%
    10:00 +32°C° 0.5 mm 2 mps 757 mmHg 72%
    11:00 +32°C° 0.5 mm 2 mps 757 mmHg 68%
    12:00 +34°C° 0.5 mm 3 mps 756 mmHg 64%
    13:00 +34°C° 1.1 mm 3 mps 756 mmHg 66%
    14:00 +33°C° 1.1 mm 3 mps 755 mmHg 68%
    15:00 +33°C° 1.1 mm 3 mps 754 mmHg 70%
    16:00 +31°C° 0.5 mm 3 mps 755 mmHg 73%
    17:00 +31°C° 0.5 mm 2 mps 755 mmHg 76%
    18:00 +30°C° 0.5 mm 1 mps 756 mmHg 79%
    19:00 +30°C° 2.5 mm 1 mps 757 mmHg 81%
    20:00 +29°C° 2.5 mm 1 mps 757 mmHg 83%
    21:00 +29°C° 2.5 mm 1 mps 758 mmHg 85%
    22:00 +29°C° 0.1 mm 1 mps 757 mmHg 85%
    23:00 +29°C° 0.1 mm 1 mps 757 mmHg 85%

    27 February, Wednesday

    Time Temperature Precipitation Wind Pressure Humidity
    00:00 +29°C° 0.1 mm 1 mps 757 mmHg 85%
    01:00 +28°C° 0 mm 1 mps 756 mmHg 85%
    02:00 +28°C° 0 mm 1 mps 756 mmHg 86%
    03:00 +28°C° 0 mm 1 mps 755 mmHg 86%
    04:00 +28°C° 0 mm 1 mps 756 mmHg 86%
    05:00 +28°C° 0 mm 1 mps 756 mmHg 87%
    06:00 +28°C° 0 mm 1 mps 756 mmHg 87%
    07:00 +29°C° 1.2 mm 1 mps 757 mmHg 82%
    08:00 +30°C° 1.2 mm 1 mps 757 mmHg 77%
    09:00 +31°C° 1.2 mm 1 mps 758 mmHg 73%
    10:00 +31°C° 0.9 mm 1 mps 757 mmHg 69%
    11:00 +32°C° 0.9 mm 1 mps 757 mmHg 65%
    12:00 +33°C° 0.9 mm 1 mps 756 mmHg 61%
    13:00 +32°C° 0.4 mm 1 mps 756 mmHg 64%
    14:00 +31°C° 0.4 mm 1 mps 755 mmHg 68%
    15:00 +31°C° 0.4 mm 1 mps 755 mmHg 71%
    16:00 +30°C° 0.1 mm 1 mps 755 mmHg 74%
    17:00 +30°C° 0.1 mm 1 mps 756 mmHg 77%
    18:00 +29°C° 0.1 mm 2 mps 756 mmHg 80%
    19:00 +29°C° 0 mm 2 mps 756 mmHg 81%
    20:00 +29°C° 0 mm 1 mps 757 mmHg 82%
    21:00 +29°C° 0 mm 1 mps 757 mmHg 82%
    22:00 +29°C° 0 mm 1 mps 757 mmHg 83%
    23:00 +28°C° 0 mm 2 mps 757 mmHg 83%
    Show more